Showing default

BRO-21, 69007

Orbit data source: Space-Track

BRO-21, 69007 is a payload satellite owned by Unseen Labs (FR) in SSO that was launched on Sun, 03 May 2026 UTC via an FALCON 9 launch vehicle from the Air Force Western Test Range (AFWTR). Payload-class satellites include a variety of spacecraft equipped with specific instruments for various scientific and technological missions. These include communications satellites like Starlink; space stations such as the ISS; scientific satellites like the Hubble; Earth observation satellites from companies like Planet Labs, Umbra, and HawkEye 360; GPS; miniature CubeSats for education and research; and military/defense satellites.

Loading next visibility...
Identifier
69007, 2026-100AD
Orbit
SSO
Country
Flag of FRFR
Related business
Manufacturer
GOMSpace
Mission
Operational spacecraft
Bus & Motor
CUBESAT 8U, Unknown motor
Mass
15 kg wet, ~15 kg dry
Launch date (UTC)
2026-05-03 (2 months ago)
Launch vehicle
FALCON 9
Launch site
Air Force Western Test Range (AFWTR)
Object type
Payload
Rocket body
Debris
Shape & HBR
Unknown shape, 1.1 m
Radar Cross Section
Medium (>0.1 m² and <1 m²)

Expand to show TLE details & history
Last TLE update: 21 hours ago

TLE from 21 hours ago
0 BRO-21
1 69007U 26100AD  26174.96527377  .00002366  00000-0  10807-3 0  9993
2 69007  97.4039  72.7488 0009071  41.5706 318.6218 15.21525206  7838
Epoch: 2026-06-23T23:09Z
TLE epoch observation values (Epoch: 2026-06-23T23:09:59.653Z)
Latitude
-0.00005°
Longitude
173.12098°
Altitude
499.651 km
Speed
7.617 km/s
True Right ascension
04h 50m 59s
True Declination
0° 00' 00"
Sunlit
Object was in daylight at epoch
Visualization orbit readout
Latitude
Unknown
Longitude
Unknown
Altitude
Unknown
Speed
Unknown
Apparent Right ascension
Unknown
Apparent Declination
Unknown
Sunlit
N/A
Visualization observer readout
Local Sidereal Time
07:36:49
Azimuth
Unknown
Elevation
Unknown
Doppler factor
Unknown
Orbital elements
Apogee altitude
504.441 km
Perigee altitude
491.966 km
Semi-major axis
6,876.34 km
Eccentricity
0.00091
Inclination
97.4039°
RAAN
72.7488°
Arg. of periapsis
41.5706°
True anomaly
318.55303°
Mean anomaly
318.6218°
Eccentric anomaly
318.58742°
Mean motion
3.80634 °/min
Orbital period
94.58 mins
BSTAR
0.00010807
Loading maneuver chart data...
Computing Atmospheric mass density...
Loading historical data...
Loading historical data...
Loading historical data...
Loading historical data...
Loading historical data...
Loading historical data...
Loading historical data...

Documentation

Showing up to 5 results
|